Weather History for Sussex, NJ

Change the Weather History Date:

Friday, May 17, 2013

  Actual Average Record
Temperature  
Mean Temperature 62 °F -  
Max Temperature 73 °F 68 °F 88 °F (1951)
Min Temperature 48 °F 45 °F 30 °F (1967)
Degree Days  
Heating Degree Days 4    
Growing Degree Days 12 (Base 50)    
Moisture  
Dew Point 39 °F    
Average Humidity 47    
Maximum Humidity 80    
Minimum Humidity 28    
Precipitation  
Precipitation 0.00 in - - ()
Sea Level Pressure  
Sea Level Pressure 30.07 in    
Wind  
Wind Speed 5 mph (NNW)    
Max Wind Speed 9 mph    
Max Gust Speed 17 mph    
Visibility 10 miles    
Events Rain    
Averages and records for this station are not official NWS values.
T = Trace of Precipitation, MM = Missing Value Source: NWS Daily Summary

Daily Weather History Graph

Daily Weather History Graph

Search for Another Location

Airport:

Trip Planner

Search our weather history database for the weather conditions in past years. The results will help you decide how hot, cold, wet, or windy it might be!

Date:

Astronomy

May. 17, 2013 Rise Set
Actual Time 5:38 AM EDT 8:12 PM EDT
Civil Twilight 5:06 AM EDT 8:44 PM EDT
Nautical Twilight 4:27 AM EDT 9:23 PM EDT
Astronomical Twilight 3:42 AM EDT 10:08 PM EDT
Moon 12:09 PM EDT (5/17) 1:02 AM EDT (5/17)
Length of Visible Light 15h 37m
Length of Day
14h 34m
Waxing Crescent, 45% of the Moon is Illuminated
May 17
Waxing Crescent
May 18
First Quarter
May 25
Full
May 31
Last Quarter
Jun 8
New

Hourly Weather History & Observations

Time (EDT) Temp. Dew Point Humidity Pressure Visibility Wind Dir Wind Speed Gust Speed Precip Events Conditions
12:53 AM 64.9 °F 35.1 °F 33% 29.89 in 10.0 mi NNW 9.2 mph 17.3 mph N/A   Clear
1:53 AM 57.9 °F 35.1 °F 42% 29.91 in 10.0 mi Calm Calm - N/A   Clear
2:53 AM 59.0 °F 37.0 °F 44% 29.92 in 10.0 mi Variable 3.5 mph - N/A   Clear
3:53 AM 57.0 °F 37.9 °F 49% 29.95 in 10.0 mi NNW 3.5 mph - N/A   Clear
4:53 AM 55.0 °F 39.0 °F 55% 29.98 in 10.0 mi Variable 3.5 mph - N/A   Clear
5:53 AM 50.0 °F 39.0 °F 66% 29.99 in 10.0 mi ENE 3.5 mph - N/A   Clear
6:53 AM 54.0 °F 39.9 °F 59% 30.04 in 10.0 mi NW 3.5 mph - N/A   Clear
8:53 AM 57.0 °F 39.0 °F 51% 30.08 in 10.0 mi NW 4.6 mph - 0.00 in   Clear
9:53 AM 57.9 °F 37.9 °F 47% 30.09 in 10.0 mi NNW 8.1 mph - 0.00 in   Clear
10:53 AM 60.1 °F 37.9 °F 44% 30.11 in 10.0 mi NNW 5.8 mph - 0.00 in Rain Light Rain
11:53 AM 62.1 °F 39.9 °F 44% 30.10 in 10.0 mi NW 8.1 mph - 0.00 in Rain Light Rain
12:53 PM 64.0 °F 39.0 °F 40% 30.10 in 10.0 mi NNW 6.9 mph 16.1 mph 0.00 in Rain Light Rain
1:53 PM 68.0 °F 39.9 °F 36% 30.09 in 10.0 mi Variable 5.8 mph - 0.00 in Rain Light Rain
3:53 PM 71.1 °F 39.0 °F 31% 30.08 in 10.0 mi Variable 3.5 mph - 0.00 in Rain Light Rain
4:53 PM 73.0 °F 37.9 °F 28% 30.08 in 10.0 mi North 3.5 mph - 0.00 in Rain Light Rain
5:53 PM 71.1 °F 37.9 °F 30% 30.09 in 10.0 mi North 8.1 mph - 0.00 in Rain Light Rain
6:53 PM 69.1 °F 37.0 °F 31% 30.11 in 10.0 mi NNW 3.5 mph - 0.00 in   Clear
7:53 PM 66.0 °F 37.9 °F 36% 30.14 in 10.0 mi Calm Calm - 0.00 in Rain Light Rain
8:53 PM 57.9 °F 42.1 °F 56% 30.17 in 10.0 mi Calm Calm - 0.00 in   Clear
9:53 PM 54.0 °F 43.0 °F 66% 30.19 in 10.0 mi Calm Calm - 0.00 in   Clear
10:53 PM 52.0 °F 44.1 °F 74% 30.21 in 10.0 mi Calm Calm - N/A   Clear
11:53 PM 48.9 °F 43.0 °F 80% 30.22 in 10.0 mi Calm Calm - N/A   Clear